PY2FGD-15 Weather Reports


time (UTC)temp
C
wind
direction
speed
KPH
gust
KPH
rain 1hr
cm
rain 24hr
cm
rain mn
cm
humidity
%
barometer
mb
20260509201002 21 317 24.1 25.7 0.25 0.76 0.51 75 1013.0
20260509200004 21 317 24.1 25.7 0.25 0.76 0.51 75 1013.0
20260509195005 21 317 24.1 25.7 0.25 0.76 0.51 75 1013.0
20260509193003 21 317 24.1 25.7 0.25 0.76 0.51 76 1013.0
20260509192008 21 317 24.1 25.7 0.25 0.76 0.51 77 1013.0
20260509191005 21 317 24.1 25.7 0.25 0.76 0.51 78 1013.0
20260509190003 22 317 24.1 25.7 0.25 0.76 0.51 77 1012.0
20260509185003 22 317 24.1 25.7 0.25 0.76 0.51 77 1012.0
20260509184002 22 317 24.1 25.7 0.25 0.76 0.51 76 1012.0
20260509183004 22 317 24.1 25.7 0.25 0.76 0.51 76 1012.0
20260509182005 23 317 24.1 25.7 0.25 0.76 0.51 75 1013.0
20260509181002 23 317 24.1 25.7 0.25 0.76 0.51 72 1012.0
20260509180004 23 317 24.1 25.7 0.25 0.76 0.51 72 1012.0
20260509175005 25 317 24.1 27.4 0.25 0.76 0.51 67 1012.0
20260509174004 25 317 24.1 27.4 0.25 0.76 0.51 67 1012.0
20260509173004 26 317 25.7 29.0 0.25 0.76 0.51 67 1013.0
20260509172003 26 317 25.7 29.0 0.25 0.76 0.51 67 1013.0
20260509171003 26 317 25.7 29.0 0.25 0.76 0.51 53 1012.0
20260509170003 26 317 25.7 29.0 0.25 0.76 0.51 53 1012.0
20260509165005 26 317 25.7 29.0 0.25 0.76 0.51 53 1012.0
20260509164003 26 317 25.7 29.0 0.25 0.76 0.51 54 1012.0
20260509162003 26 336 24.1 27.4 0.25 0.76 0.51 51 1013.0
20260509161005 26 336 24.1 27.4 0.25 0.76 0.51 51 1013.0
20260509160005 26 336 25.7 29.0 0.25 0.76 0.51 51 1013.0
20260509155003 26 336 25.7 29.0 0.25 0.76 0.51 51 1013.0
20260509154003 26 336 25.7 29.0 0.25 0.76 0.51 54 1013.0
20260509153004 26 336 25.7 29.0 0.25 0.76 0.51 54 1013.0
20260509151003 24 341 22.5 24.1 0.25 0.76 0.51 59 1014.0
20260509150006 24 341 22.5 24.1 0.25 0.76 0.51 59 1014.0
20260509143005 23 341 19.3 22.5 0.25 0.76 0.51 64 1015.0
20260509142003 23 341 19.3 22.5 0.25 0.76 0.51 64 1015.0
20260509141005 23 341 20.9 24.1 0.25 0.76 0.51 64 1015.0
20260509140005 23 341 20.9 24.1 0.25 0.76 0.51 64 1015.0
20260509133004 21 353 17.7 19.3 0.25 0.76 0.51 78 1015.0
20260509131005 21 353 17.7 19.3 0.25 0.76 0.51 78 1015.0
20260509130004 22 353 17.7 19.3 0.25 0.76 0.51 78 1015.0
20260509125004 22 353 17.7 19.3 0.25 0.76 0.51 78 1015.0
20260509124003 22 353 17.7 19.3 0.25 0.76 0.51 75 1015.0
20260509123004 22 353 17.7 19.3 0.25 0.76 0.51 75 1015.0
20260509122003 22 353 17.7 19.3 0.25 0.76 0.51 75 1015.0
20260509120006 22 353 17.7 20.9 0.25 0.76 0.51 75 1015.0
20260509115003 22 353 19.3 20.9 0.25 0.76 0.51 75 1015.0
20260509113003 18 353 6.4 6.4 0.25 0.76 0.51 80 1015.0
20260509112003 18 353 6.4 6.4 0.25 0.76 0.51 80 1014.0
20260509111003 19 353 6.4 6.4 0.25 0.76 0.51 80 1014.0
20260509110005 19 353 6.4 6.4 0.25 0.76 0.51 80 1014.0
20260509105004 18 353 6.4 6.4 0.25 0.76 0.51 74 1014.0
20260509102004 18 353 6.4 6.4 0.25 0.76 0.51 74 1014.0
20260509101004 19 353 6.4 6.4 0.25 0.76 0.51 74 1014.0
20260509095003 20 353 6.4 6.4 0.25 0.76 0.51 74 1014.0
20260509094003 20 353 6.4 8.0 0.25 0.76 0.51 74 1014.0
20260509093003 20 353 6.4 8.0 0.25 0.76 0.51 74 1014.0
20260509092004 15 298 1.6 1.6 0.25 0.76 0.51 74 1013.0
20260509090004 15 298 1.6 1.6 0.25 0.76 0.51 74 1013.0
20260509084003 16 298 1.6 1.6 0.25 0.76 0.51 74 1013.0
20260509083004 16 298 1.6 1.6 0.25 0.76 0.51 74 1012.0
20260509081004 17 298 1.6 1.6 0.25 0.76 0.51 74 1012.0
20260509080003 17 298 1.6 1.6 0.25 0.76 0.51 74 1012.0
20260509075003 17 298 1.6 1.6 0.25 0.76 0.51 74 1012.0
20260509074008 17 298 1.6 1.6 0.25 0.76 0.51 74 1012.0
20260509073003 18 298 1.6 1.6 0.25 0.76 0.51 74 1012.0
20260509072003 18 298 1.6 1.6 0.25 0.76 0.51 74 1012.0
20260509071003 18 298 1.6 1.6 0.25 0.76 0.51 74 1012.0
20260509070003 19 298 1.6 1.6 0.25 0.76 0.51 74 1012.0
20260509064004 20 298 1.6 3.2 0.25 0.76 0.51 74 1012.0
20260509063003 20 298 1.6 3.2 0.25 0.76 0.51 74 1012.0
20260509062002 20 298 3.2 3.2 0.25 0.76 0.51 74 1012.0
20260509055004 15 306 17.7 19.3 0.25 0.76 0.51 74 1012.0
20260509054003 15 306 17.7 19.3 0.25 0.76 0.51 74 1012.0
20260509053003 16 306 17.7 19.3 0.25 0.76 0.51 74 1012.0
20260509052003 16 306 17.7 19.3 0.25 0.76 0.51 74 1012.0
20260509051002 16 306 17.7 19.3 0.25 0.76 0.51 74 1012.0
20260509050003 17 306 17.7 19.3 0.25 0.76 0.51 74 1012.0
20260509045003 17 306 17.7 19.3 0.25 0.76 0.51 74 1012.0
20260509044003 17 306 17.7 19.3 0.25 0.76 0.51 74 1012.0
20260509043004 18 306 17.7 19.3 0.25 0.76 0.51 74 1012.0
20260509042008 18 306 17.7 19.3 0.25 0.76 0.51 74 1012.0
20260509040003 18 306 17.7 19.3 0.25 0.76 0.51 74 1012.0
20260509035003 19 306 17.7 19.3 0.25 0.76 0.51 74 1012.0
20260509034004 20 306 17.7 19.3 0.25 0.76 0.51 74 1012.0
20260509033004 20 306 17.7 19.3 0.25 0.76 0.51 74 1012.0
20260509032002 21 306 17.7 19.3 0.25 0.76 0.51 74 1011.0
20260509031003 21 306 17.7 19.3 0.25 0.76 0.51 74 1012.0
20260509030006 21 306 17.7 19.3 0.25 0.76 0.51 74 1012.0
20260509025007 22 306 17.7 19.3 0.25 0.76 0.51 74 1012.0
20260509024003 22 306 17.7 19.3 0.25 0.76 0.51 74 1012.0
20260509022003 22 306 17.7 19.3 0.25 0.76 0.51 74 1012.0
20260509021003 22 306 17.7 19.3 0.25 0.76 0.51 74 1012.0
20260509020003 22 306 17.7 19.3 0.25 0.76 0.51 74 1012.0
20260509015003 22 306 17.7 19.3 0.25 0.76 0.51 74 1012.0
20260509014003 21 306 17.7 19.3 0.25 0.76 0.51 75 1012.0
20260509013008 21 306 17.7 19.3 0.25 0.76 0.51 75 1012.0
20260509011003 22 306 17.7 19.3 0.25 0.76 0.51 75 1011.0
20260509010004 22 306 17.7 19.3 0.25 0.76 0.51 75 1011.0
20260509005003 22 306 17.7 19.3 0.25 0.76 0.51 74 1011.0
20260509004003 22 306 17.7 19.3 0.25 0.76 0.51 73 1011.0
20260509003003 22 306 17.7 19.3 0.25 0.76 0.51 73 1011.0
20260509001008 22 306 17.7 19.3 0.25 0.76 0.51 72 1011.0
20260509000003 22 306 17.7 19.3 0.25 0.76 0.51 71 1011.0
20260508235003 22 306 17.7 19.3 0.25 0.76 0.51 71 1011.0
20260508234003 22 306 17.7 19.3 0.25 0.76 0.51 69 1011.0
20260508233003 22 306 17.7 19.3 0.25 0.76 0.51 69 1011.0
20260508232002 22 306 17.7 19.3 0.25 0.76 0.51 67 1010.0
20260508231010 22 306 17.7 19.3 0.25 0.76 0.51 67 1010.0
20260508230005 23 306 17.7 19.3 0.25 0.76 0.51 67 1010.0
20260508225003 23 306 17.7 19.3 0.25 0.76 0.51 67 1010.0
20260508223003 23 306 17.7 19.3 0.25 0.76 0.51 67 1010.0
20260508222004 23 306 17.7 19.3 0.25 0.76 0.51 66 1010.0
20260508221004 23 306 17.7 19.3 0.25 0.76 0.51 66 1010.0
20260508215003 23 306 17.7 19.3 0.25 0.76 0.51 65 1010.0
20260508214004 23 306 17.7 19.3 0.25 0.76 0.51 65 1010.0
20260508213004 23 306 17.7 19.3 0.25 0.76 0.51 64 1010.0
20260508212002 23 306 17.7 19.3 0.25 0.76 0.51 64 1010.0
20260508211003 23 306 17.7 19.3 0.25 0.76 0.51 64 1010.0
20260508210007 23 306 17.7 19.3 0.25 0.76 0.51 64 1010.0
20260508205003 23 306 17.7 19.3 0.25 0.76 0.51 64 1010.0
20260508204007 23 306 17.7 19.3 0.25 0.76 0.51 64 1010.0